Regional Weather Roundup
Issued by NWS Cleveland, OH

Home | Current Version | Previous Version | Text Only | Print | Product List | Glossary Off
Versions: 1 2 3 4 5 6 7 8 9 10 11 12 13 14 15 16 17 18 19 20 21 22 23 24 25 26 27 28 29 30 31 32 33 34 35 36 37 38 39 40 41 42 43 44 45 46 47 48 49 50

000
ASUS41 KCLE 291110
RWRCLE
OHIO REGIONAL WEATHER ROUNDUP
NATIONAL WEATHER SERVICE WILMINGTON, OH
700 AM EDT WED MAR 29 2017

NOTE: "FAIR" INDICATES FEW OR NO CLOUDS BELOW 12,000 FEET WITH NO
SIGNIFICANT WEATHER AND/OR OBSTRUCTIONS TO VISIBILITY.

OHZ001>008-015>018-024>027-034-035-043-044-291200-
   NORTHWEST OHIO

CITY           SKY/WX    TMP DP  RH WIND       PRES   REMARKS
DEFIANCE       FAIR      33  32  96 NE7       30.24R WCI  27
FINDLAY        FAIR      37  31  78 NE6       30.22R
TOLEDO EXPRESS FAIR      33  31  92 NE5       30.24R WCI  29
TOLEDO EXEC    FAIR      36  33  89 NE5       30.25R
LIMA           CLOUDY    39  35  86 E13       30.21R
$$

OHZ009>014-019>023-028>033-038-089-291200-
   NORTHEAST OHIO

CITY           SKY/WX    TMP DP  RH WIND       PRES   REMARKS
CLE-HOPKINS    CLOUDY    39  34  82 NE6       30.23S
CLE-LAKEFRONT  FAIR      37  35  92 CALM      30.22S
CUY CO. ARPT   MOCLDY    36  36 100 NE5       30.22
LORAIN-ELYRIA  CLOUDY    37  33  85 NE6       30.22S
ASHTABULA      FAIR      33  32  96 CALM      30.22R FOG
AKRON-CANTON   CLOUDY    40  36  86 N7        30.18S FOG
WOOSTER        CLOUDY    38  36  92 NE8       30.19S
MANSFIELD      CLOUDY    37  36  96 N6        30.18S
YOUNGSTOWN     MOCLDY    38  33  82 N6        30.19R
$$

OHZ042-051>053-060>062-070>072-077>081-291200-
  SOUTHWEST OHIO

CITY           SKY/WX    TMP DP  RH WIND       PRES   REMARKS
CINC-COVINGTON CLOUDY    46  39  76 NE12      30.16R
CINC-LUNKEN    MOCLDY    46  41  82 NE10      30.18R
HAMILTON       CLOUDY    45  39  79 E10       30.19R
DAYTON         MOCLDY    39  35  86 NE13      30.20R
WRIGHT-PAT AFB PTCLDY    37  36  93 NE13      30.20R
DAYTON GENERAL MOCLDY    42  37  82 E7        30.17R
WILMINGTON     FAIR      38  35  89 NE9       30.18R
$$

OHZ036-037-039>041-045>050-054>059-063>069-073>076-082>088-291200-
  CENTRAL AND SOUTHEAST OHIO

CITY           SKY/WX    TMP DP  RH WIND       PRES   REMARKS
COLUMBUS       CLOUDY    42  39  89 NE7       30.18R
OSU AIRPORT    CLOUDY    39  38  96 N6        30.19R
BOLTON FIELD   CLOUDY    40  38  91 NE6       30.19R
RICKENBACK AFB CLOUDY    41  39  94 NE5       30.18R
NEWARK         CLOUDY    43  38  82 CALM      30.18R
MARION         CLOUDY    40  36  86 NE7       30.21R
LANCASTER      CLOUDY    44  40  85 NE6       30.18R
ZANESVILLE     CLOUDY    44  39  82 N5        30.17R
NEW PHILLY     CLOUDY    43  40  89 N6        30.19R
$$




USA.gov is the U.S. government's official web portal to all federal, state and local government web resources and services.